Terminal Aerodrome Forecast
Issued by NWS

Home | Current Version | Previous Version | Text Only | Print | Product List | Glossary On
Versions: 1 2 3 4 5 6 7 8 9 10 11 12 13 14 15 16 17 18 19
000
FTUS43 KLSX 251100
TAFUIN
TAF
KUIN 251120Z 2512/2612 15006KT P6SM OVC200
      TEMPO 2512/2515 5SM -TSRA BKN080CB OVC150
     FM251800 18012KT P6SM SCT250=

USA.gov is the U.S. government's official web portal to all federal, state and local government web resources and services.